SCP
0 0 0 0 0 0 0 0 0 -0 -0 -0 -0 0 0 0 0 0 0 0 0 0 0 0 0 1 1 1 1 1 1 1 1 1 0 0 0 1 0 0 0 0 0
0 0 0 0 0 0 0 0 0 0 0 0 0 0 0 0 0 0 0 0 0 0 0 0 0 0 1 1 1 1 1 1 1 0 0 1 1 1 1 0 0 1 1
0 0 0 0 0 0 0 0 0 0 0 0 0 0 0 0 0 0 1 0 0 0 0 0 0 0 0 1 1 1 0 0 1 1 1 1 1 1 1 0 1 1 1
0 0 0 0 0 0 0 0 0 0 0 0 0 0 0 1 1 0 0 0 0 0 0 0 0 0 0 0 0 1 0 0 1 1 0 1 1 1 1 1 1 1 1
0 0 0 0 1 1 1 1 1 0 1 0 0 0 0 0 0 0 0 0 0 0 0 0 0 0 0 0 0 0 1 1 1 0 0 0 1 1 1 1 1 1 0
0 0 0 1 1 1 2 1 1 0 0 -0 0 0 0 0 0 0 0 0 0 0 0 0 0 0 0 0 0 0 0 0 1 1 1 1 1 1 1 1 1 1 1
0 0 0 1 1 2 2 1 0 0 0 0 0 0 0 0 0 0 0 0 0 0 0 0 0 0 0 0 0 0 0 0 0 1 1 1 1 1 1 1 1 1 1
1 1 2 1 0 0 0 1 1 -0 -0 0 0 0 0 0 0 0 0 0 0 0 0 0 0 0 0 0 0 0 0 0 0 0 1 1 1 2 3 2 1 1 1
2 2 0 0 0 0 0 0 -0 0 0 0 0 0 0 0 0 0 0 0 0 0 0 0 0 0 0 0 0 0 0 0 0 0 0 0 0 0 0 2 3 2 2
0 0 0 0 0 0 0 -0 -0 -0 0 0 0 0 0 0 0 0 0 0 0 0 0 0 0 0 0 0 0 0 0 0 0 0 0 0 0 0 0 0 0 1 4
0 0 0 0 0 0 0 -0 0 0 0 0 0 0 0 0 0 0 0 0 0 0 0 0 0 0 0 0 0 0 0 0 0 0 0 0 0 0 0 0 0 0 0
0 0 0 0 0 0 0 0 0 0 0 0 0 0 0 0 0 0 0 0 0 0 0 0 0 0 0 0 0 0 0 0 0 0 0 0 0 0 0 0 0 0 0
0 0 0 0 -0 0 0 0 0 0 0 0 0 0 0 0 0 0 0 0 0 0 0 0 0 0 0 0 0 0 0 0 0 0 0 0 0 0 0 0 0 0 0
0 0 0 0 0 0 0 0 0 0 0 0 0 0 0 0 0 0 0 0 0 0 0 0 0 0 0 0 0 0 0 0 0 0 0 0 0 0 0 0 0 0 0
0 0 0 0 0 0 0 0 0 0 0 0 0 0 0 0 0 0 0 0 0 0 0 0 0 0 0 0 0 0 0 0 0 0 0 0 0 0 0 0 0 0 0
0 0 0 0 0 0 0 0 0 0 0 0 0 0 0 0 0 0 0 0 0 0 0 0 0 0 0 0 0 0 0 0 0 0 0 0 0 0 0 0 0 0 0
0 0 0 0 0 0 0 0 0 0 0 0 0 0 0 0 0 0 0 0 0 0 0 0 0 0 0 0 0 0 0 0 0 0 0 0 0 0 0 0 0 0 0
0 0 0 0 0 0 0 0 0 0 0 0 0 0 0 0 0 0 0 0 0 0 0 0 0 0 0 0 0 0 0 0 0 0 0 0 0 0 0 0 0 0 0
0 0 0 0 0 0 0 0 0 0 0 0 0 0 0 0 0 0 0 0 0 0 0 0 0 0 0 0 0 0 0 0 0 0 0 0 0 0 0 0 0 0 0
0 0 0 0 0 0 0 0 0 0 0 0 0 0 0 0 0 0 0 0 0 0 0 0 0 0 0 0 0 0 0 0 0 0 0 0 0 0 0 0 0 0 0
0 0 0 0 0 0 0 0 0 0 0 0 0 0 0 0 0 0 0 0 0 0 0 0 0 0 0 0 0 0 0 0 0 0 0 0 0 0 0 0 0 0 0
0 0 0 0 0 0 0 0 0 0 0 0 0 0 0 0 0 0 0 0 0 0 0 0 0 0 0 0 0 0 0 0 0 0 0 0 0 0 -0 -0 -0 -0 0
0 0 0 0 0 0 0 0 0 0 0 0 0 0 0 0 0 0 0 0 0 0 0 0 0 0 0 0 0 0 0 0 0 0 0 0 0 0 0 0 0 -0 -0
0 0 0 0 0 0 0 0 0 0 0 0 0 0 0 0 0 0 0 0 0 0 -0 0 0 0 0 0 0 0 0 0 0 0 0 0 0 0 0 0 0 -0 -0
0 0 0 0 0 0 0 0 0 0 0 0 0 0 0 0 0 0 0 0 -0 -0 0 0 0 0 0 0 0 0 0 0 0 0 0 0 0 0 0 0 -0 -0 0
0 0 0 0 0 0 0 0 0 0 0 0 0 0 0 0 0 0 -0 0 -0 -0 -0 0 0 0 0 0 0 0 0 0 0 0 0 0 0 0 0 0 0 -0 0
Wind_Speed_500mb
33 32 29 25 20 17 12 12 12 12 13 15 17 20 22 25 29 34 39 39 41 46 51 53 55 52 53 54 51 46 41 47 56 58 56 51 47 43 46 47 44 42 36
29 29 28 25 26 19 13 11 10 14 16 21 25 29 32 36 40 42 46 51 52 54 56 53 53 53 53 51 51 52 58 54 54 54 44 48 48 52 51 47 43 40 39
28 26 26 27 26 18 15 13 14 18 26 32 36 39 40 42 45 49 54 57 57 53 46 41 44 46 47 53 56 60 61 61 52 45 34 44 42 46 52 54 47 43 44
27 27 23 26 25 21 17 15 17 21 32 39 42 39 44 48 52 53 54 47 43 40 42 45 48 51 47 41 44 45 46 43 37 36 41 40 42 45 46 43 41 44 46
29 30 28 24 24 26 20 10 15 27 38 42 46 47 51 53 49 44 31 30 33 34 37 37 39 39 33 34 37 38 40 38 37 44 44 44 42 38 34 38 43 48 48
30 32 33 32 31 26 16 15 5 20 49 53 50 51 51 46 39 22 19 31 32 33 39 42 45 40 38 37 40 44 45 44 47 51 52 53 54 53 48 49 50 53 56
32 33 37 38 35 23 26 17 20 37 53 47 49 51 50 37 26 21 29 25 35 38 36 32 39 43 45 45 43 43 46 47 45 46 49 58 62 66 61 61 58 60 60
32 30 34 41 42 26 11 13 18 44 51 46 36 40 24 30 20 35 48 37 38 37 37 47 51 51 53 55 57 56 55 54 55 53 51 54 58 64 69 71 71 71 68
28 35 38 37 22 20 18 5 31 31 46 36 31 19 15 17 48 49 48 38 45 40 40 44 48 56 60 60 63 65 66 65 65 65 65 66 66 63 64 66 67 73 76
24 31 31 10 12 16 12 14 29 37 33 30 29 25 28 34 36 41 42 49 47 45 46 53 56 63 60 54 62 65 68 63 61 60 60 63 64 67 71 72 74 73 71
20 13 11 18 16 14 12 30 31 32 26 24 29 37 39 37 37 42 52 45 47 45 52 59 65 54 53 57 52 40 51 58 63 64 66 70 72 73 73 72 72 65 66
7 13 9 15 10 15 24 29 25 23 26 29 34 38 38 35 32 33 48 54 53 45 43 41 40 43 45 41 54 57 62 59 56 57 59 61 62 64 67 70 74 69 64
10 19 20 25 19 23 23 21 20 24 27 31 32 36 36 38 42 41 42 50 53 49 31 39 48 45 43 53 52 61 70 62 61 61 60 61 61 62 63 61 59 63 76
11 19 15 11 16 18 18 21 19 27 29 31 35 36 38 37 36 38 36 44 59 40 37 54 45 43 51 57 64 68 60 54 52 54 53 51 50 49 51 56 61 61 57
25 24 22 15 13 13 17 18 23 27 31 34 33 31 29 30 34 38 40 45 43 45 59 44 63 55 58 58 61 60 57 54 55 56 57 52 51 48 46 46 46 55 61
29 23 17 14 19 15 17 21 26 29 28 24 21 24 27 34 37 40 40 33 39 49 44 70 66 63 60 58 55 56 52 53 52 51 53 55 54 50 48 42 42 41 54
26 25 20 18 14 15 20 22 21 17 17 20 24 28 34 36 34 34 39 48 52 49 53 68 64 60 58 55 50 50 48 48 47 48 55 53 53 54 50 49 51 45 49
28 21 16 10 12 17 17 15 15 18 21 22 28 33 36 36 31 38 46 50 52 55 59 67 67 60 55 53 54 56 57 57 61 59 71 66 65 54 48 44 44 42 43
22 16 11 8 9 8 14 17 18 20 23 27 33 36 37 31 32 40 46 50 54 58 60 63 70 62 58 57 64 67 63 62 66 64 54 48 50 49 39 35 41 48 46
15 8 6 4 8 15 18 19 21 22 26 31 31 33 33 36 41 45 48 47 51 57 60 58 58 65 63 65 61 58 59 61 71 58 50 50 48 42 37 36 39 42 40
8 4 9 15 20 22 21 23 26 31 31 30 30 30 34 37 40 44 49 50 52 56 59 58 57 58 59 59 58 62 62 67 70 56 61 58 49 48 32 28 24 25 27
11 15 19 23 24 24 24 25 30 33 28 29 27 31 38 41 39 43 50 53 57 55 57 56 59 55 54 51 56 59 58 66 60 55 61 64 52 52 29 24 22 23 23
21 23 26 25 23 22 22 25 27 28 29 32 33 40 43 45 49 52 54 56 57 57 52 50 58 50 51 49 51 55 53 54 60 67 53 75 62 53 41 28 25 24 20
27 29 26 23 19 19 18 20 23 25 31 34 37 40 45 50 53 56 57 57 60 56 59 58 49 44 40 42 44 50 52 53 61 59 55 57 64 55 28 32 38 32 17
31 28 27 22 17 14 14 15 18 22 29 33 38 41 46 49 52 55 58 58 62 64 68 62 49 41 33 33 40 47 50 55 59 61 38 68 53 50 26 29 38 35 23
30 28 23 19 17 15 13 16 22 20 25 30 36 41 46 49 51 54 57 60 62 66 71 74 66 52 46 43 47 49 48 49 47 38 50 60 50 46 23 32 34 38 28
Wind_Direction_500mb
207 206 204 204 201 190 189 185 202 234 254 266 269 272 277 284 292 300 303 300 297 297 298 298 296 292 291 284 284 275 269 283 281 278 279 288 290 268 264 284 281 278 280
208 209 207 206 195 193 203 217 234 260 275 282 287 289 292 297 302 304 307 307 304 300 299 297 296 284 280 279 276 271 268 285 283 279 280 284 291 277 285 280 277 261 252
206 209 212 203 198 204 207 238 267 292 299 299 297 295 293 297 300 302 304 304 302 301 300 303 302 298 286 277 275 275 274 284 281 278 276 283 283 275 271 273 270 260 247
207 205 201 200 200 205 218 250 284 299 308 306 302 297 296 298 302 304 304 307 307 307 307 307 308 303 295 285 283 283 279 280 276 270 275 270 276 281 273 267 261 260 252
212 208 204 201 204 206 218 274 307 314 316 309 305 301 300 302 306 306 310 314 311 307 316 313 316 323 311 295 287 289 284 278 278 279 269 272 275 274 270 266 259 259 260
223 219 212 210 216 236 217 240 291 324 310 307 303 300 302 306 303 298 303 317 312 305 305 309 306 309 304 300 293 288 280 276 280 280 269 268 272 276 273 267 262 261 259
237 232 228 227 236 239 219 229 307 277 303 300 304 307 309 306 298 289 317 314 319 310 301 310 308 304 302 300 298 293 291 293 286 279 272 265 267 270 269 270 264 263 262
235 234 230 233 239 226 224 294 254 276 294 300 304 312 313 311 310 313 322 311 314 307 305 308 304 301 301 300 297 293 292 289 287 283 279 272 268 266 264 264 264 264 265
244 247 241 237 236 173 110 286 265 286 284 292 303 302 312 305 313 305 309 313 317 313 310 308 310 309 304 303 302 303 300 298 297 292 287 280 274 270 266 265 264 263 262
251 240 216 183 109 52 61 232 279 281 284 293 302 305 306 303 308 305 303 305 314 313 313 314 315 312 310 310 306 304 299 295 290 286 285 282 278 274 270 267 264 263 261
196 210 52 64 332 170 224 242 270 276 289 303 312 316 313 313 305 297 304 306 304 304 309 310 309 311 312 312 313 311 300 300 297 293 288 283 278 274 270 269 268 266 261
216 157 168 159 47 274 261 246 273 285 304 315 317 311 311 309 303 307 304 307 307 314 302 310 310 316 320 321 317 309 305 301 298 295 291 288 285 283 278 270 262 262 260
105 153 151 149 175 230 251 266 277 296 319 319 311 307 307 311 311 311 307 311 313 318 309 305 316 319 319 320 318 313 309 302 301 301 296 289 284 282 279 278 275 267 259
157 200 217 228 225 219 255 272 295 321 315 313 312 314 317 316 315 322 321 319 321 314 311 314 327 321 320 322 321 318 319 313 308 308 307 300 290 288 285 277 272 272 270
174 199 216 190 214 267 293 304 319 317 316 312 319 324 328 333 337 333 331 328 324 318 327 336 324 325 325 322 326 324 317 314 313 311 311 303 294 286 282 278 276 270 265
174 207 230 252 272 283 293 315 316 312 316 334 346 352 349 346 342 342 340 329 337 332 318 328 331 327 321 321 328 330 329 327 326 321 317 313 304 292 287 281 273 274 265
193 198 221 243 261 293 309 312 320 339 11 12 4 356 353 345 351 358 351 352 354 341 325 334 335 338 340 341 338 337 331 326 321 320 327 323 315 300 287 277 274 271 269
187 202 216 245 289 303 314 350 30 38 30 11 2 1 356 358 9 7 10 8 360 350 337 329 340 345 348 344 342 342 341 338 326 320 320 317 315 309 292 280 277 277 277
178 184 207 259 298 356 51 63 58 39 26 16 7 8 17 26 18 9 3 360 356 354 350 344 343 340 339 343 342 342 340 335 334 329 326 319 316 305 291 281 280 282 280
184 209 263 323 52 75 78 68 52 39 22 15 22 32 24 21 13 8 2 355 349 348 346 341 340 344 342 344 344 339 340 349 347 347 338 341 337 328 320 303 292 287 267
161 122 82 88 94 95 84 70 49 35 33 36 35 28 28 20 15 10 3 360 352 350 345 340 342 342 343 345 345 344 343 348 353 0 353 355 351 346 337 311 301 303 267
113 99 106 110 110 100 79 57 43 34 38 32 28 23 20 19 21 13 7 1 1 357 352 346 348 345 343 347 349 348 349 348 339 355 340 4 351 4 351 334 326 312 299
108 114 119 123 115 97 73 53 43 44 41 37 30 28 22 23 21 16 11 7 4 7 5 357 350 348 346 351 351 349 348 346 343 355 350 353 2 10 23 27 21 5 359
111 116 117 116 98 83 67 50 38 40 37 32 28 23 20 18 13 9 11 10 9 10 12 6 357 353 353 350 355 344 338 331 341 356 355 342 357 3 15 19 7 3 356
113 111 109 105 87 62 42 29 25 34 30 30 26 18 14 10 5 3 5 8 11 15 16 11 1 4 0 351 0 347 342 344 346 351 347 348 2 355 8 2 8 18 18
110 105 101 92 78 47 28 14 24 32 30 30 23 18 12 6 2 1 5 5 9 12 10 9 8 7 9 17 16 4 352 354 355 347 342 353 360 7 342 1 9 8 18
Wind_Speed_850mb
33 32 29 25 20 17 12 12 12 12 13 15 17 20 22 25 29 34 39 39 41 46 51 53 55 52 53 54 51 46 41 47 56 58 56 51 47 43 46 47 44 42 36
29 29 28 25 26 19 13 11 10 14 16 21 25 29 32 36 40 42 46 51 52 54 56 53 53 53 53 51 51 52 58 54 54 54 44 48 48 52 51 47 43 40 39
28 26 26 27 26 18 15 13 14 18 26 32 36 39 40 42 45 49 54 57 57 53 46 41 44 46 47 53 56 60 61 61 52 45 34 44 42 46 52 54 47 43 44
27 27 23 26 25 21 17 15 17 21 32 39 42 39 44 48 52 53 54 47 43 40 42 45 48 51 47 41 44 45 46 43 37 36 41 40 42 45 46 43 41 44 46
29 30 28 24 24 26 20 10 15 27 38 42 46 47 51 53 49 44 31 30 33 34 37 37 39 39 33 34 37 38 40 38 37 44 44 44 42 38 34 38 43 48 48
30 32 33 32 31 26 16 15 5 20 49 53 50 51 51 46 39 22 19 31 32 33 39 42 45 40 38 37 40 44 45 44 47 51 52 53 54 53 48 49 50 53 56
32 33 37 38 35 23 26 17 20 37 53 47 49 51 50 37 26 21 29 25 35 38 36 32 39 43 45 45 43 43 46 47 45 46 49 58 62 66 61 61 58 60 60
32 30 34 41 42 26 11 13 18 44 51 46 36 40 24 30 20 35 48 37 38 37 37 47 51 51 53 55 57 56 55 54 55 53 51 54 58 64 69 71 71 71 68
28 35 38 37 22 20 18 5 31 31 46 36 31 19 15 17 48 49 48 38 45 40 40 44 48 56 60 60 63 65 66 65 65 65 65 66 66 63 64 66 67 73 76
24 31 31 10 12 16 12 14 29 37 33 30 29 25 28 34 36 41 42 49 47 45 46 53 56 63 60 54 62 65 68 63 61 60 60 63 64 67 71 72 74 73 71
20 13 11 18 16 14 12 30 31 32 26 24 29 37 39 37 37 42 52 45 47 45 52 59 65 54 53 57 52 40 51 58 63 64 66 70 72 73 73 72 72 65 66
7 13 9 15 10 15 24 29 25 23 26 29 34 38 38 35 32 33 48 54 53 45 43 41 40 43 45 41 54 57 62 59 56 57 59 61 62 64 67 70 74 69 64
10 19 20 25 19 23 23 21 20 24 27 31 32 36 36 38 42 41 42 50 53 49 31 39 48 45 43 53 52 61 70 62 61 61 60 61 61 62 63 61 59 63 76
11 19 15 11 16 18 18 21 19 27 29 31 35 36 38 37 36 38 36 44 59 40 37 54 45 43 51 57 64 68 60 54 52 54 53 51 50 49 51 56 61 61 57
25 24 22 15 13 13 17 18 23 27 31 34 33 31 29 30 34 38 40 45 43 45 59 44 63 55 58 58 61 60 57 54 55 56 57 52 51 48 46 46 46 55 61
29 23 17 14 19 15 17 21 26 29 28 24 21 24 27 34 37 40 40 33 39 49 44 70 66 63 60 58 55 56 52 53 52 51 53 55 54 50 48 42 42 41 54
26 25 20 18 14 15 20 22 21 17 17 20 24 28 34 36 34 34 39 48 52 49 53 68 64 60 58 55 50 50 48 48 47 48 55 53 53 54 50 49 51 45 49
28 21 16 10 12 17 17 15 15 18 21 22 28 33 36 36 31 38 46 50 52 55 59 67 67 60 55 53 54 56 57 57 61 59 71 66 65 54 48 44 44 42 43
22 16 11 8 9 8 14 17 18 20 23 27 33 36 37 31 32 40 46 50 54 58 60 63 70 62 58 57 64 67 63 62 66 64 54 48 50 49 39 35 41 48 46
15 8 6 4 8 15 18 19 21 22 26 31 31 33 33 36 41 45 48 47 51 57 60 58 58 65 63 65 61 58 59 61 71 58 50 50 48 42 37 36 39 42 40
8 4 9 15 20 22 21 23 26 31 31 30 30 30 34 37 40 44 49 50 52 56 59 58 57 58 59 59 58 62 62 67 70 56 61 58 49 48 32 28 24 25 27
11 15 19 23 24 24 24 25 30 33 28 29 27 31 38 41 39 43 50 53 57 55 57 56 59 55 54 51 56 59 58 66 60 55 61 64 52 52 29 24 22 23 23
21 23 26 25 23 22 22 25 27 28 29 32 33 40 43 45 49 52 54 56 57 57 52 50 58 50 51 49 51 55 53 54 60 67 53 75 62 53 41 28 25 24 20
27 29 26 23 19 19 18 20 23 25 31 34 37 40 45 50 53 56 57 57 60 56 59 58 49 44 40 42 44 50 52 53 61 59 55 57 64 55 28 32 38 32 17
31 28 27 22 17 14 14 15 18 22 29 33 38 41 46 49 52 55 58 58 62 64 68 62 49 41 33 33 40 47 50 55 59 61 38 68 53 50 26 29 38 35 23
30 28 23 19 17 15 13 16 22 20 25 30 36 41 46 49 51 54 57 60 62 66 71 74 66 52 46 43 47 49 48 49 47 38 50 60 50 46 23 32 34 38 28
Wind_Direction_850mb
207 206 204 204 201 190 189 185 202 234 254 266 269 272 277 284 292 300 303 300 297 297 298 298 296 292 291 284 284 275 269 283 281 278 279 288 290 268 264 284 281 278 280
208 209 207 206 195 193 203 217 234 260 275 282 287 289 292 297 302 304 307 307 304 300 299 297 296 284 280 279 276 271 268 285 283 279 280 284 291 277 285 280 277 261 252
206 209 212 203 198 204 207 238 267 292 299 299 297 295 293 297 300 302 304 304 302 301 300 303 302 298 286 277 275 275 274 284 281 278 276 283 283 275 271 273 270 260 247
207 205 201 200 200 205 218 250 284 299 308 306 302 297 296 298 302 304 304 307 307 307 307 307 308 303 295 285 283 283 279 280 276 270 275 270 276 281 273 267 261 260 252
212 208 204 201 204 206 218 274 307 314 316 309 305 301 300 302 306 306 310 314 311 307 316 313 316 323 311 295 287 289 284 278 278 279 269 272 275 274 270 266 259 259 260
223 219 212 210 216 236 217 240 291 324 310 307 303 300 302 306 303 298 303 317 312 305 305 309 306 309 304 300 293 288 280 276 280 280 269 268 272 276 273 267 262 261 259
237 232 228 227 236 239 219 229 307 277 303 300 304 307 309 306 298 289 317 314 319 310 301 310 308 304 302 300 298 293 291 293 286 279 272 265 267 270 269 270 264 263 262
235 234 230 233 239 226 224 294 254 276 294 300 304 312 313 311 310 313 322 311 314 307 305 308 304 301 301 300 297 293 292 289 287 283 279 272 268 266 264 264 264 264 265
244 247 241 237 236 173 110 286 265 286 284 292 303 302 312 305 313 305 309 313 317 313 310 308 310 309 304 303 302 303 300 298 297 292 287 280 274 270 266 265 264 263 262
251 240 216 183 109 52 61 232 279 281 284 293 302 305 306 303 308 305 303 305 314 313 313 314 315 312 310 310 306 304 299 295 290 286 285 282 278 274 270 267 264 263 261
196 210 52 64 332 170 224 242 270 276 289 303 312 316 313 313 305 297 304 306 304 304 309 310 309 311 312 312 313 311 300 300 297 293 288 283 278 274 270 269 268 266 261
216 157 168 159 47 274 261 246 273 285 304 315 317 311 311 309 303 307 304 307 307 314 302 310 310 316 320 321 317 309 305 301 298 295 291 288 285 283 278 270 262 262 260
105 153 151 149 175 230 251 266 277 296 319 319 311 307 307 311 311 311 307 311 313 318 309 305 316 319 319 320 318 313 309 302 301 301 296 289 284 282 279 278 275 267 259
157 200 217 228 225 219 255 272 295 321 315 313 312 314 317 316 315 322 321 319 321 314 311 314 327 321 320 322 321 318 319 313 308 308 307 300 290 288 285 277 272 272 270
174 199 216 190 214 267 293 304 319 317 316 312 319 324 328 333 337 333 331 328 324 318 327 336 324 325 325 322 326 324 317 314 313 311 311 303 294 286 282 278 276 270 265
174 207 230 252 272 283 293 315 316 312 316 334 346 352 349 346 342 342 340 329 337 332 318 328 331 327 321 321 328 330 329 327 326 321 317 313 304 292 287 281 273 274 265
193 198 221 243 261 293 309 312 320 339 11 12 4 356 353 345 351 358 351 352 354 341 325 334 335 338 340 341 338 337 331 326 321 320 327 323 315 300 287 277 274 271 269
187 202 216 245 289 303 314 350 30 38 30 11 2 1 356 358 9 7 10 8 360 350 337 329 340 345 348 344 342 342 341 338 326 320 320 317 315 309 292 280 277 277 277
178 184 207 259 298 356 51 63 58 39 26 16 7 8 17 26 18 9 3 360 356 354 350 344 343 340 339 343 342 342 340 335 334 329 326 319 316 305 291 281 280 282 280
184 209 263 323 52 75 78 68 52 39 22 15 22 32 24 21 13 8 2 355 349 348 346 341 340 344 342 344 344 339 340 349 347 347 338 341 337 328 320 303 292 287 267
161 122 82 88 94 95 84 70 49 35 33 36 35 28 28 20 15 10 3 360 352 350 345 340 342 342 343 345 345 344 343 348 353 0 353 355 351 346 337 311 301 303 267
113 99 106 110 110 100 79 57 43 34 38 32 28 23 20 19 21 13 7 1 1 357 352 346 348 345 343 347 349 348 349 348 339 355 340 4 351 4 351 334 326 312 299
108 114 119 123 115 97 73 53 43 44 41 37 30 28 22 23 21 16 11 7 4 7 5 357 350 348 346 351 351 349 348 346 343 355 350 353 2 10 23 27 21 5 359
111 116 117 116 98 83 67 50 38 40 37 32 28 23 20 18 13 9 11 10 9 10 12 6 357 353 353 350 355 344 338 331 341 356 355 342 357 3 15 19 7 3 356
113 111 109 105 87 62 42 29 25 34 30 30 26 18 14 10 5 3 5 8 11 15 16 11 1 4 0 351 0 347 342 344 346 351 347 348 2 355 8 2 8 18 18
110 105 101 92 78 47 28 14 24 32 30 30 23 18 12 6 2 1 5 5 9 12 10 9 8 7 9 17 16 4 352 354 355 347 342 353 360 7 342 1 9 8 18